Tracking 20083 objects as of 12-Dec-2019
HD Live streaming from Space Station
objects crossing your sky now

FENGYUN 1C DEB

Track FENGYUN 1C DEB now!
10-day predictions


NORAD ID: 33610
Int'l Code: 1999-025DCT
Perigee: 386.0 km
Apogee: 575.8 km
Inclination: 99.1 °
Period: 94.1 minutes
Semi major axis: 6851 km
RCS: 0.0091 m2 (small)
Launch date: May 10, 1999
Source: People's Republic of China (PRC)
Launch site: Taiyaun Space Center, China (TSC)

Note: This is SATELLITE DEBRIS
aabbcc
Your satellite tracking list
Your tracking list is empty




NASA's NSSDC Master Catalog

Two Line Element Set (TLE):
1 33610U 99025DCT 14228.56040454 -.08293446  00000-0  00000+0 0  9999
2 33610 099.0783 231.4583 0138490 343.1293 016.5966 15.30677308356745
Source of the keplerian elements: AFSPC